Location: Passau
(48.5830°N, 13.4830°E)
Time: 21:46:16
(UTC+02:00)

Vanguard 3 - Pass Details

Date: 19 May 2024
Orbit: 509 x 3231 km, 33.3° (Epoch: 16 June)

Event Time Altitude Azimuth Distance (km) Brightness Sun altitude
Rises 22:57:52 0° 253° (WSW) 5,238 11.5 -16.0°
Reaches altitude 10° 23:01:01 10° 247° (WSW) 4,565 11.0 -16.2°
Maximum altitude 23:13:49 46° 181° (S) 3,480 9.9 -17.2°
Drops below altitude 10° 23:31:27 10° 117° (ESE) 6,160 11.2 -18.4°
Sets 23:36:34 0° 113° (ESE) 7,154 11.6 -18.8°
